Time[GMT],salinity[psu](50m),sigma_t[kg/m^3](50m),conductivity[msiemens/cm](50m),temperature[C](50m)
2006-09-12 14:00,32.561,25.023,35.849,10.15
2006-09-12 15:00,32.472,24.907,36.010,10.43
2006-09-12 16:00,32.492,24.917,36.057,10.46
2006-09-12 17:00,32.521,24.997,35.783,10.12
2006-09-12 18:00,32.523,25.002,35.767,10.10
2006-09-12 19:00,32.544,25.033,35.708,10.01
2006-09-12 20:00,32.586,25.098,35.581,9.82
2006-09-12 21:00,32.561,25.083,35.529,9.79
2006-09-12 22:00,32.584,24.972,36.238,10.56
2006-09-12 23:00,32.488,24.798,36.651,11.13
2006-09-13 00:00,32.555,25.007,35.906,10.22
2006-09-13 01:00,32.515,24.947,36.017,10.39
2006-09-13 02:00,32.513,24.962,35.926,10.29
2006-09-13 03:00,32.526,24.983,35.886,10.23
2006-09-13 04:00,32.526,24.992,35.832,10.17
2006-09-13 05:00,32.517,24.979,35.859,10.21
2006-09-13 06:00,32.540,25.032,35.695,10.00
2006-09-13 07:00,32.526,24.992,35.832,10.17
2006-09-13 08:00,32.639,24.966,36.544,10.84
2006-09-13 09:00,32.626,25.062,35.976,10.22
2006-09-13 10:00,32.612,25.121,35.588,9.80
2006-09-13 11:00,32.568,24.916,36.445,10.81
2006-09-13 12:00,32.600,24.915,36.612,10.96
2006-09-13 13:00,32.565,24.840,36.819,11.23
2006-09-13 14:00,32.501,24.869,36.351,10.78
2006-09-13 15:00,32.511,24.925,36.111,10.50
2006-09-13 16:00,32.519,24.940,36.075,10.45
2006-09-13 17:00,32.555,25.009,35.897,10.21
2006-09-13 18:00,32.520,24.968,35.933,10.29
2006-09-13 19:00,32.599,24.997,36.181,10.48
2006-09-13 20:00,32.585,25.060,35.775,10.04
2006-09-13 21:00,32.636,25.158,35.514,9.69
2006-09-13 22:00,32.617,25.113,35.655,9.87
2006-09-13 23:00,32.533,24.925,36.222,10.60
2006-09-14 00:00,32.515,24.878,36.374,10.79
2006-09-14 01:00,32.480,24.798,36.607,11.09
2006-09-14 02:00,32.532,24.957,36.052,10.41
2006-09-14 03:00,32.545,24.967,36.065,10.41
2006-09-14 04:00,32.541,24.957,36.097,10.45
2006-09-14 05:00,32.610,25.026,36.085,10.36
2006-09-14 06:00,32.665,25.000,36.498,10.76
2006-09-14 07:00,32.607,25.012,36.145,10.43
2006-09-14 08:00,32.606,25.043,35.974,10.24
2006-09-14 09:00,32.667,25.115,35.910,10.10
2006-09-14 10:00,32.631,25.083,35.892,10.12
2006-09-14 11:00,32.623,25.068,35.928,10.17
2006-09-14 12:00,32.609,25.091,35.737,9.97
2006-09-14 13:00,32.498,24.886,36.250,10.67
2006-09-14 14:00,32.497,24.895,36.195,10.61
2006-09-14 15:00,32.499,24.826,36.564,11.02
2006-09-14 16:00,32.515,24.964,35.928,10.29
2006-09-14 17:00,32.613,25.069,35.874,10.12
2006-09-14 18:00,32.643,25.094,35.895,10.11
2006-09-14 19:00,32.631,25.093,35.838,10.06
2006-09-14 20:00,32.748,25.132,36.231,10.37
2006-09-14 21:00,32.722,25.159,35.955,10.09
2006-09-14 22:00,32.719,25.099,36.256,10.43
2006-09-14 23:00,32.669,25.096,36.019,10.22
2006-09-15 00:00,32.725,25.153,36.003,10.14
2006-09-15 01:00,32.699,25.139,35.941,10.10
2006-09-15 02:00,32.631,25.118,35.705,9.91
2006-09-15 03:00,32.638,24.993,36.399,10.68
2006-09-15 04:00,32.787,24.949,37.361,11.58
2006-09-15 05:00,32.816,24.973,37.381,11.57
2006-09-15 06:00,32.807,24.997,37.218,11.40
2006-09-15 07:00,32.837,25.021,37.249,11.40
2006-09-15 08:00,32.728,25.135,36.113,10.26
2006-09-15 09:00,32.907,25.218,36.588,10.59
2006-09-15 10:00,32.867,25.083,37.080,11.18
2006-09-15 11:00,32.812,25.036,37.052,11.21
2006-09-15 12:00,32.796,25.009,37.108,11.29
2006-09-15 13:00,32.815,25.038,37.055,11.21
2006-09-15 14:00,32.861,25.025,37.346,11.48
2006-09-15 15:00,32.886,25.020,37.489,11.61
2006-09-15 16:00,32.874,24.998,37.541,11.68
2006-09-15 17:00,32.857,25.007,37.414,11.56
2006-09-15 18:00,32.883,25.069,37.232,11.33
2006-09-15 19:00,32.899,25.082,37.249,11.33
2006-09-15 20:00,32.895,25.075,37.263,11.35
2006-09-15 21:00,32.890,25.078,37.221,11.31
2006-09-15 22:00,32.882,25.075,37.195,11.29
2006-09-15 23:00,32.873,25.057,37.240,11.35
2006-09-16 00:00,32.866,25.052,37.233,11.35
2006-09-16 01:00,32.878,25.074,37.182,11.28
2006-09-16 02:00,32.800,24.993,37.202,11.39
2006-09-16 03:00,32.810,25.001,37.212,11.39
2006-09-16 04:00,32.865,25.051,37.232,11.35
2006-09-16 05:00,32.839,25.042,37.151,11.29
2006-09-16 06:00,32.861,25.066,37.137,11.25
2006-09-16 07:00,32.874,25.077,37.151,11.25
2006-09-16 08:00,32.903,25.112,37.117,11.18
2006-09-16 09:00,32.887,25.106,37.064,11.14
2006-09-16 10:00,32.842,25.075,37.001,11.12
2006-09-16 11:00,32.877,25.098,37.054,11.14
2006-09-16 12:00,32.881,25.098,37.076,11.16
2006-09-16 13:00,32.872,25.083,37.103,11.20
2006-09-16 14:00,32.853,25.065,37.102,11.22
2006-09-16 15:00,32.863,25.069,37.130,11.24
2006-09-16 16:00,32.832,25.040,37.126,11.27
2006-09-16 17:00,32.822,25.029,37.134,11.29
2006-09-16 18:00,32.800,25.010,37.121,11.30
2006-09-16 19:00,32.842,25.053,37.109,11.24
2006-09-16 20:00,32.814,25.042,37.026,11.18
2006-09-16 21:00,32.826,25.056,37.011,11.15
2006-09-16 22:00,32.850,25.088,36.973,11.08
2006-09-16 23:00,32.867,25.115,36.917,11.00
2006-09-17 00:00,32.867,25.110,36.945,11.03
2006-09-17 01:00,32.867,25.109,36.954,11.04
2006-09-17 02:00,32.867,25.109,36.954,11.04
2006-09-17 03:00,32.829,25.064,36.987,11.12
2006-09-17 04:00,32.830,25.062,37.007,11.14
2006-09-17 05:00,32.873,25.111,36.969,11.05
2006-09-17 06:00,32.868,25.119,36.900,10.98
2006-09-17 07:00,32.864,25.106,36.951,11.04
2006-09-17 08:00,32.877,25.116,36.964,11.04
2006-09-17 09:00,32.905,25.149,36.938,10.98
2006-09-17 10:00,33.001,25.124,37.534,11.53
2006-09-17 11:00,33.014,25.151,37.466,11.44
2006-09-17 12:00,32.869,25.092,37.046,11.14
2006-09-17 13:00,32.934,25.116,37.248,11.29
2006-09-17 14:00,32.874,25.073,37.169,11.27
2006-09-17 15:00,32.873,25.057,37.240,11.35
2006-09-17 16:00,32.897,25.063,37.328,11.42
2006-09-17 17:00,32.892,25.065,37.296,11.39
2006-09-17 18:00,32.901,25.068,37.323,11.41
2006-09-17 19:00,32.911,25.095,37.243,11.31
2006-09-17 20:00,32.913,25.105,37.199,11.26
2006-09-17 21:00,32.931,25.124,37.190,11.23
2006-09-17 22:00,32.866,25.071,37.133,11.24
2006-09-17 23:00,32.873,25.080,37.122,11.22
2006-09-18 00:00,32.877,25.071,37.190,11.29
2006-09-18 01:00,32.873,25.047,37.295,11.41
2006-09-18 02:00,32.907,25.023,37.574,11.68
2006-09-18 03:00,32.897,25.007,37.610,11.73
2006-09-18 04:00,32.887,24.994,37.627,11.76
2006-09-18 05:00,32.877,24.980,37.644,11.79
2006-09-18 06:00,32.939,25.038,37.662,11.74
2006-09-18 07:00,32.894,25.003,37.616,11.74
2006-09-18 08:00,32.817,24.970,37.400,11.59
2006-09-18 09:00,32.815,25.007,37.208,11.38
2006-09-18 10:00,32.802,25.017,37.096,11.27
2006-09-18 11:00,32.753,24.942,37.226,11.47
2006-09-18 12:00,32.780,24.992,37.109,11.31
2006-09-18 13:00,32.818,25.037,37.076,11.23
2006-09-18 14:00,32.871,25.034,37.347,11.47
2006-09-18 15:00,32.871,25.016,37.438,11.57
2006-09-18 16:00,32.911,25.009,37.670,11.78
2006-09-18 17:00,32.822,24.956,37.496,11.69
2006-09-18 18:00,32.800,24.946,37.437,11.65
2006-09-18 19:00,32.975,25.071,37.671,11.71
2006-09-18 20:00,32.769,24.935,37.342,11.58
2006-09-18 21:00,32.783,24.951,37.329,11.55
2006-09-18 22:00,32.823,24.977,37.398,11.58
2006-09-18 23:00,32.762,24.953,37.218,11.45
2006-09-19 00:00,32.856,25.015,37.368,11.51
2006-09-19 01:00,32.882,25.054,37.304,11.41
2006-09-19 02:00,32.891,25.055,37.340,11.44
2006-09-19 03:00,32.925,25.080,37.384,11.45
2006-09-19 04:00,32.944,25.089,37.431,11.48
2006-09-19 05:00,32.962,25.111,37.413,11.44
2006-09-19 06:00,32.972,25.115,37.441,11.46
2006-09-19 07:00,32.867,25.083,37.080,11.18
2006-09-19 08:00,32.951,25.063,37.592,11.65
2006-09-19 09:00,32.887,25.034,37.427,11.54
2006-09-19 10:00,32.854,24.986,37.502,11.66
2006-09-19 11:00,32.888,25.027,37.464,11.58
2006-09-19 12:00,32.861,24.982,37.554,11.71
2006-09-19 13:00,32.864,25.012,37.421,11.56
2006-09-19 14:00,32.862,25.033,37.311,11.44
2006-09-19 15:00,32.845,25.054,37.121,11.25
2006-09-19 16:00,32.757,25.066,36.617,10.79
2006-09-19 17:00,32.725,25.082,36.379,10.56
2006-09-19 18:00,32.741,25.061,36.565,10.75
2006-09-19 19:00,32.834,25.081,36.929,11.05
2006-09-19 20:00,32.901,25.095,37.187,11.26
2006-09-19 21:00,32.789,24.985,37.191,11.39
2006-09-19 22:00,32.739,24.966,37.041,11.28
2006-09-19 23:00,32.813,25.003,37.215,11.39
2006-09-20 00:00,32.870,25.068,37.174,11.28
2006-09-20 01:00,32.801,25.126,36.536,10.65
2006-09-20 02:00,32.739,25.070,36.509,10.69
2006-09-20 03:00,32.693,25.067,36.293,10.50
2006-09-20 04:00,32.836,25.029,37.203,11.35
2006-09-20 05:00,32.665,25.072,36.122,10.34
2006-09-20 06:00,32.624,25.074,35.903,10.14
2006-09-20 07:00,32.684,25.073,36.212,10.42
2006-09-20 08:00,32.748,25.108,36.357,10.51
2006-09-20 09:00,32.707,25.120,36.083,10.25
2006-09-20 10:00,32.789,25.078,36.722,10.87
2006-09-20 11:00,32.736,25.033,36.686,10.89
2006-09-20 12:00,32.784,25.056,36.807,10.97
2006-09-20 13:00,32.757,25.028,36.815,11.01
2006-09-20 14:00,32.863,25.108,36.931,11.02
2006-09-20 15:00,32.831,25.105,36.791,10.90
2006-09-20 16:00,32.794,25.069,36.790,10.94
2006-09-20 17:00,32.717,25.087,36.308,10.49
2006-09-20 18:00,32.706,25.123,36.064,10.23
2006-09-20 19:00,32.678,25.084,36.126,10.33
2006-09-20 20:00,32.694,25.071,36.276,10.48
2006-09-20 21:00,32.695,25.107,36.089,10.27
2006-09-20 22:00,32.637,25.052,36.085,10.33
2006-09-20 23:00,32.641,25.040,36.170,10.42
2006-09-21 00:00,32.707,25.096,36.208,10.39
2006-09-21 01:00,32.712,25.100,36.213,10.39
2006-09-21 02:00,32.737,25.110,36.292,10.45
2006-09-21 03:00,32.739,25.120,36.249,10.40
2006-09-21 04:00,32.708,25.089,36.254,10.44
2006-09-21 05:00,32.631,24.969,36.491,10.79
2006-09-21 06:00,32.689,25.104,36.074,10.26
2006-09-21 07:00,32.693,25.134,35.935,10.10
2006-09-21 08:00,32.693,25.088,36.186,10.38
2006-09-21 09:00,32.745,25.121,36.273,10.42
2006-09-21 10:00,32.731,25.102,36.304,10.47
2006-09-21 11:00,32.722,25.084,36.349,10.53
2006-09-21 12:00,32.719,25.126,36.113,10.27
2006-09-21 13:00,32.797,25.098,36.658,10.79
2006-09-21 14:00,32.830,25.079,36.916,11.04
2006-09-21 15:00,32.840,25.083,36.944,11.06
2006-09-21 16:00,32.832,25.088,36.882,11.00
2006-09-21 17:00,32.818,25.065,36.931,11.07
2006-09-21 18:00,32.812,25.113,36.655,10.77
2006-09-21 19:00,32.767,25.121,36.385,10.52
2006-09-21 20:00,32.726,25.041,36.595,10.80
2006-09-21 21:00,32.705,25.043,36.475,10.69
2006-09-21 22:00,32.690,25.095,36.129,10.32
2006-09-21 23:00,32.763,25.116,36.390,10.53
2006-09-22 00:00,32.926,25.147,37.049,11.08
2006-09-22 01:00,32.830,25.085,36.889,11.01
2006-09-22 02:00,32.708,25.094,36.227,10.41
2006-09-22 03:00,32.738,25.114,36.275,10.43
2006-09-22 04:00,32.813,25.217,36.117,10.17
2006-09-22 05:00,32.729,25.138,36.105,10.25
2006-09-22 06:00,32.735,25.090,36.389,10.56
2006-09-22 07:00,32.774,25.101,36.527,10.67
2006-09-22 08:00,32.712,25.065,36.402,10.60
2006-09-22 09:00,32.710,25.028,36.579,10.80
2006-09-22 10:00,32.728,24.998,36.822,11.05
2006-09-22 11:00,32.733,25.086,36.396,10.57
2006-09-22 12:00,32.763,25.038,36.794,10.98
2006-09-22 13:00,32.847,25.075,37.024,11.14
2006-09-22 14:00,32.820,25.070,36.915,11.05
2006-09-22 15:00,32.916,25.139,37.039,11.08
2006-09-22 16:00,32.882,25.132,36.905,10.97
2006-09-22 17:00,32.862,25.083,37.057,11.16
2006-09-22 18:00,32.848,25.106,36.871,10.97
2006-09-22 19:00,32.875,25.045,37.315,11.43
2006-09-22 20:00,32.857,25.038,37.260,11.39
2006-09-22 21:00,32.828,25.017,37.222,11.38
2006-09-22 22:00,32.714,25.109,36.180,10.35
2006-09-22 23:00,32.719,25.113,36.185,10.35
2006-09-23 00:00,32.705,25.085,36.260,10.45
2006-09-23 01:00,32.729,25.080,36.410,10.59
2006-09-23 02:00,32.828,25.069,36.959,11.09
2006-09-23 03:00,32.845,25.048,37.148,11.28
2006-09-23 04:00,32.711,25.089,36.266,10.45
2006-09-23 05:00,32.726,25.101,36.281,10.45
2006-09-23 06:00,32.739,25.066,36.527,10.71
2006-09-23 07:00,32.722,25.078,36.385,10.57
2006-09-23 08:00,32.728,25.063,36.489,10.68
2006-09-23 09:00,32.805,25.006,37.162,11.34
2006-09-23 10:00,32.826,25.022,37.183,11.34
2006-09-23 11:00,32.818,24.997,37.275,11.45
2006-09-23 12:00,32.835,24.999,37.346,11.51
2006-09-23 13:00,32.839,25.033,37.197,11.34
2006-09-23 14:00,32.847,25.077,37.015,11.13
2006-09-23 15:00,32.804,24.982,37.278,11.47
2006-09-23 16:00,32.823,25.051,37.027,11.17
2006-09-23 17:00,32.762,25.153,36.192,10.31
2006-09-23 18:00,32.769,25.063,36.692,10.86
2006-09-23 19:00,32.743,25.099,36.379,10.54
2006-09-23 20:00,32.766,25.158,36.187,10.30
2006-09-23 21:00,32.749,25.127,36.259,10.40
2006-09-23 22:00,32.745,25.106,36.354,10.51
2006-09-23 23:00,32.714,25.054,36.466,10.67
2006-09-24 00:00,32.724,25.006,36.764,10.99
2006-09-24 01:00,32.725,25.066,36.459,10.65
2006-09-24 02:00,32.741,25.126,36.224,10.37
2006-09-24 03:00,32.740,25.120,36.250,10.40
2006-09-24 04:00,32.722,25.081,36.367,10.55
2006-09-24 05:00,32.740,25.122,36.241,10.39
2006-09-24 06:00,32.698,25.036,36.477,10.70
2006-09-24 07:00,32.730,25.096,36.330,10.50
2006-09-24 08:00,32.738,25.095,36.374,10.54
2006-09-24 09:00,32.723,25.075,36.404,10.59
2006-09-24 10:00,32.758,25.154,36.170,10.29
2006-09-24 11:00,32.761,25.115,36.388,10.53
2006-09-24 12:00,32.734,25.055,36.558,10.75
2006-09-24 13:00,32.731,25.062,36.510,10.70
2006-09-24 14:00,32.711,25.078,36.329,10.52
2006-09-24 15:00,32.717,25.070,36.398,10.59
2006-09-24 16:00,32.790,25.204,36.067,10.14
2006-09-24 17:00,32.770,25.168,36.155,10.26
2006-09-24 18:00,32.776,25.152,36.268,10.38
2006-09-24 19:00,32.810,25.224,36.060,10.11
2006-09-24 20:00,32.800,25.215,36.059,10.12
2006-09-24 21:00,32.770,25.166,36.164,10.27
2006-09-24 22:00,32.745,25.131,36.219,10.36
2006-09-24 23:00,32.719,25.087,36.319,10.50
2006-09-25 00:00,32.710,25.072,36.355,10.55
2006-09-25 01:00,32.718,25.085,36.327,10.51
2006-09-25 02:00,32.751,25.124,36.288,10.43
2006-09-25 03:00,32.817,25.209,36.174,10.23
2006-09-25 04:00,32.790,25.173,36.228,10.32
2006-09-25 05:00,32.870,25.217,36.407,10.43
2006-09-25 06:00,32.907,25.183,36.768,10.79
2006-09-25 07:00,32.984,25.210,37.017,10.98
2006-09-25 08:00,32.974,25.192,37.062,11.04
2006-09-25 09:00,33.010,25.244,36.971,10.90
2006-09-25 10:00,32.936,25.135,37.159,11.19
2006-09-25 11:00,32.920,25.153,36.989,11.02
2006-09-25 12:00,32.827,25.121,36.688,10.79
2006-09-25 13:00,32.874,25.131,36.870,10.94
2006-09-25 14:00,32.858,25.199,36.440,10.48
2006-09-25 15:00,32.752,25.106,36.388,10.54
2006-09-25 16:00,32.792,25.158,36.320,10.42
2006-09-25 17:00,32.787,25.127,36.459,10.58
2006-09-25 18:00,32.832,25.155,36.540,10.62
2006-09-25 19:00,32.806,25.191,36.217,10.29
2006-09-25 20:00,32.765,25.069,36.643,10.81
2006-09-25 21:00,32.731,25.073,36.457,10.64
2006-09-25 22:00,32.775,25.144,36.303,10.42
2006-09-25 23:00,32.806,25.191,36.217,10.29
2006-09-26 00:00,32.831,25.117,36.728,10.83
2006-09-26 01:00,32.879,25.198,36.551,10.58
2006-09-26 02:00,32.927,25.220,36.680,10.67
2006-09-26 03:00,33.000,25.187,37.215,11.18
2006-09-26 04:00,33.013,25.204,37.192,11.14
2006-09-26 05:00,33.005,25.194,37.202,11.16
2006-09-26 06:00,33.003,25.189,37.218,11.18
2006-09-26 07:00,32.971,25.150,37.258,11.26
2006-09-26 08:00,32.952,25.126,37.284,11.31
2006-09-26 09:00,32.941,25.103,37.346,11.39
2006-09-26 10:00,32.900,25.057,37.377,11.47
2006-09-26 11:00,32.869,25.129,36.856,10.93
2006-09-26 12:00,32.897,25.148,36.903,10.95
2006-09-26 13:00,32.869,25.115,36.928,11.01
2006-09-26 14:00,32.866,25.101,36.989,11.08
2006-09-26 15:00,32.924,25.093,37.310,11.37
2006-09-26 16:00,32.903,25.097,37.189,11.26
2006-09-26 17:00,32.845,25.096,36.904,11.01
2006-09-26 18:00,32.849,25.204,36.368,10.41
2006-09-26 19:00,32.863,25.198,36.472,10.51
2006-09-26 20:00,32.870,25.209,36.452,10.48
2006-09-26 21:00,32.876,25.237,36.332,10.34
2006-09-26 22:00,32.826,25.176,36.399,10.47
2006-09-26 23:00,32.845,25.189,36.427,10.48
2006-09-27 00:00,32.862,25.180,36.561,10.61
2006-09-27 01:00,32.954,25.140,37.223,11.24
2006-09-27 02:00,32.932,25.081,37.409,11.47
2006-09-27 03:00,32.927,25.074,37.422,11.49
2006-09-27 04:00,32.934,25.087,37.393,11.45
2006-09-27 05:00,32.961,25.128,37.321,11.34
2006-09-27 06:00,32.840,25.108,36.818,10.92
2006-09-27 07:00,32.792,25.181,36.194,10.28
2006-09-27 08:00,32.761,25.134,36.289,10.42
2006-09-27 09:00,32.776,25.169,36.179,10.28
2006-09-27 10:00,32.767,25.162,36.170,10.28
2006-09-27 11:00,32.761,25.158,36.164,10.28
2006-09-27 12:00,32.755,25.150,36.176,10.30
2006-09-27 13:00,32.766,25.163,36.160,10.27
2006-09-27 14:00,32.778,25.189,36.082,10.17
2006-09-27 15:00,32.770,25.159,36.199,10.31
2006-09-27 16:00,32.769,25.164,36.172,10.28
2006-09-27 17:00,32.760,25.152,36.190,10.31
2006-09-27 18:00,32.765,25.155,36.194,10.31
2006-09-27 19:00,32.766,25.144,36.258,10.38
2006-09-27 20:00,32.965,25.237,36.781,10.74
2006-09-27 21:00,32.898,25.054,37.384,11.48
2006-09-27 22:00,32.818,25.102,36.742,10.86
2006-09-27 23:00,32.790,25.117,36.525,10.65
2006-09-28 00:00,32.781,25.094,36.596,10.74
2006-09-28 01:00,32.848,25.087,36.971,11.08
2006-09-28 02:00,32.829,25.098,36.816,10.93
2006-09-28 03:00,32.919,25.084,37.332,11.40
2006-09-28 04:00,32.926,25.116,37.203,11.25
2006-09-28 05:00,32.980,25.139,37.358,11.36
2006-09-28 06:00,32.943,25.107,37.339,11.38
2006-09-28 07:00,32.999,25.153,37.377,11.36
2006-09-28 08:00,33.034,25.206,37.286,11.22
2006-09-28 09:00,33.001,25.166,37.325,11.30
2006-09-28 10:00,33.001,25.168,37.316,11.29
2006-09-28 11:00,33.004,25.168,37.328,11.30
2006-09-28 12:00,32.986,25.155,37.310,11.30
2006-09-28 13:00,32.994,25.159,37.327,11.31
2006-09-28 14:00,32.962,25.125,37.340,11.36
2006-09-28 15:00,32.944,25.106,37.349,11.39
2006-09-28 16:00,32.926,25.089,37.339,11.40
2006-09-28 17:00,32.917,25.082,37.330,11.40
2006-09-28 18:00,32.957,25.128,37.298,11.32
2006-09-28 19:00,32.964,25.137,37.287,11.30
2006-09-28 20:00,32.943,25.115,37.293,11.33
2006-09-28 21:00,32.957,25.132,37.280,11.30
2006-09-28 22:00,32.964,25.139,37.278,11.29
2006-09-28 23:00,32.966,25.140,37.280,11.29
2006-09-29 00:00,32.966,25.142,37.271,11.28
2006-09-29 01:00,32.950,25.124,37.282,11.31
2006-09-29 02:00,32.920,25.087,37.324,11.39
2006-09-29 03:00,32.908,25.070,37.348,11.43
2006-09-29 04:00,32.906,25.067,37.355,11.44
2006-09-29 05:00,32.893,25.047,37.387,11.49
2006-09-29 06:00,32.891,25.048,37.376,11.48
2006-09-29 07:00,32.867,25.018,37.406,11.54
2006-09-29 08:00,32.880,25.031,37.411,11.53
2006-09-29 09:00,32.910,25.068,37.369,11.45
2006-09-29 10:00,32.898,25.059,37.356,11.45
2006-09-29 11:00,32.859,25.114,36.882,10.97
2006-09-29 12:00,32.807,25.104,36.677,10.80
2006-09-29 13:00,32.852,25.111,36.866,10.96
2006-09-29 14:00,32.816,25.106,36.713,10.83
2006-09-29 15:00,32.767,25.118,36.403,10.54
2006-09-29 16:00,32.925,25.100,37.284,11.34
2006-09-29 17:00,32.938,25.106,37.315,11.36
2006-09-29 18:00,32.937,25.105,37.314,11.36
2006-09-29 19:00,32.905,25.150,36.929,10.97
2006-09-29 20:00,32.921,25.163,36.945,10.97
2006-09-29 21:00,32.904,25.098,37.190,11.26
2006-09-29 22:00,32.864,25.090,37.032,11.13
2006-09-29 23:00,32.856,25.093,36.979,11.08
2006-09-30 00:00,32.844,25.103,36.867,10.97
2006-09-30 01:00,32.832,25.111,36.765,10.87
2006-09-30 02:00,32.804,25.117,36.593,10.71
2006-09-30 03:00,32.819,25.131,36.599,10.70
2006-09-30 04:00,32.891,25.138,36.924,10.98
2006-09-30 05:00,32.790,25.070,36.768,10.92
2006-09-30 06:00,32.795,25.152,36.368,10.47
2006-09-30 07:00,32.795,25.153,36.359,10.46
2006-09-30 08:00,32.856,25.218,36.330,10.36
2006-09-30 09:00,32.796,25.154,36.360,10.46
2006-09-30 10:00,32.800,25.159,36.355,10.45
2006-09-30 11:00,32.803,25.163,36.349,10.44
2006-09-30 12:00,32.799,25.158,36.354,10.45
2006-09-30 13:00,32.840,25.190,36.395,10.45
2006-09-30 14:00,32.817,25.115,36.669,10.78
2006-09-30 15:00,32.881,25.153,36.796,10.85
2006-09-30 16:00,32.849,25.138,36.710,10.79
2006-09-30 17:00,32.835,25.129,36.687,10.78
2006-09-30 18:00,32.812,25.122,36.610,10.72
2006-09-30 19:00,32.796,25.125,36.513,10.63
2006-09-30 20:00,32.772,25.096,36.543,10.69
2006-09-30 21:00,32.853,25.221,36.300,10.33
2006-09-30 22:00,32.858,25.221,36.323,10.35
2006-09-30 23:00,32.867,25.220,36.377,10.40
2006-10-01 00:00,32.855,25.152,36.671,10.74
2006-10-01 01:00,32.858,25.199,36.440,10.48
2006-10-01 02:00,32.891,25.242,36.383,10.38
2006-10-01 03:00,32.873,25.207,36.473,10.50
2006-10-01 04:00,32.860,25.187,36.514,10.56
2006-10-01 05:00,32.837,25.134,36.671,10.76
2006-10-01 06:00,32.804,25.130,36.530,10.64
2006-10-01 07:00,32.794,25.127,36.493,10.61
2006-10-01 08:00,32.798,25.128,36.506,10.62
2006-10-01 09:00,32.835,25.133,36.669,10.76
2006-10-01 10:00,32.858,25.119,36.854,10.94
2006-10-01 11:00,32.871,25.150,36.759,10.82
2006-10-01 12:00,32.875,25.148,36.790,10.85
2006-10-01 13:00,32.881,25.156,36.778,10.83
2006-10-01 14:00,32.890,25.130,36.959,11.02
2006-10-01 15:00,32.897,25.115,37.065,11.13
2006-10-01 16:00,32.897,25.121,37.038,11.10
2006-10-01 17:00,32.903,25.170,36.818,10.85
2006-10-01 18:00,32.916,25.144,37.012,11.05
2006-10-01 19:00,32.859,25.198,36.450,10.49
2006-10-01 20:00,32.845,25.165,36.553,10.62
2006-10-01 21:00,32.876,25.136,36.854,10.92
2006-10-01 22:00,32.819,25.174,36.374,10.45
2006-10-01 23:00,32.808,25.115,36.624,10.74
2006-10-02 00:00,32.750,25.029,36.772,10.97
2006-10-02 01:00,32.759,25.024,36.844,11.04
2006-10-02 02:00,32.794,25.076,36.754,10.90
2006-10-02 03:00,32.799,25.080,36.759,10.90
2006-10-02 04:00,32.812,25.074,36.853,10.99
2006-10-02 05:00,32.790,25.043,36.903,11.07
2006-10-02 06:00,32.809,25.063,36.895,11.04
2006-10-02 07:00,32.824,25.082,36.874,11.00
2006-10-02 08:00,32.844,25.113,36.813,10.91
2006-10-02 09:00,32.829,25.130,36.654,10.75
2006-10-02 10:00,32.805,25.120,36.585,10.70
2006-10-02 11:00,32.814,25.143,36.513,10.61
2006-10-02 12:00,32.853,25.214,36.336,10.37
2006-10-02 13:00,32.870,25.202,36.488,10.52
2006-10-02 14:00,32.864,25.155,36.698,10.76
2006-10-02 15:00,32.865,25.082,37.078,11.18
2006-10-02 16:00,32.755,25.026,36.813,11.01
2006-10-02 17:00,32.747,25.013,36.841,11.05
2006-10-02 18:00,32.739,25.007,36.833,11.05
2006-10-02 19:00,32.783,25.073,36.716,10.87
2006-10-02 20:00,32.813,25.110,36.674,10.79
2006-10-02 21:00,32.811,25.104,36.699,10.82
2006-10-02 22:00,32.805,25.141,36.477,10.58
2006-10-02 23:00,32.852,25.181,36.506,10.56
2006-10-03 00:00,32.859,25.183,36.531,10.58
2006-10-03 01:00,32.802,25.104,36.654,10.78
2006-10-03 02:00,32.794,25.089,36.691,10.83
2006-10-03 03:00,32.800,25.097,36.679,10.81
2006-10-03 04:00,32.731,25.018,36.735,10.95
2006-10-03 05:00,32.765,25.074,36.616,10.78
2006-10-03 06:00,32.867,25.159,36.692,10.75
2006-10-03 07:00,32.756,25.052,36.688,10.87
2006-10-03 08:00,32.817,25.117,36.660,10.77
2006-10-03 09:00,32.827,25.123,36.679,10.78
2006-10-03 10:00,32.860,25.152,36.694,10.76
2006-10-03 11:00,32.905,25.182,36.766,10.79
2006-10-03 12:00,32.899,25.210,36.589,10.60
2006-10-03 13:00,32.812,25.144,36.493,10.59
2006-10-03 14:00,32.816,25.149,36.488,10.58
2006-10-03 15:00,32.798,25.120,36.551,10.67
2006-10-03 16:00,32.751,25.039,36.728,10.92
2006-10-03 17:00,32.740,25.018,36.780,10.99
2006-10-03 18:00,32.786,25.091,36.637,10.78
2006-10-03 19:00,32.827,25.154,36.517,10.60
2006-10-03 20:00,32.852,25.181,36.506,10.56
2006-10-03 21:00,32.811,25.138,36.519,10.62
2006-10-03 22:00,32.845,25.177,36.490,10.55
2006-10-03 23:00,32.846,25.173,36.518,10.58
2006-10-04 00:00,32.864,25.209,36.419,10.45
2006-10-04 01:00,32.846,25.195,36.401,10.45
2006-10-04 02:00,32.849,25.105,36.881,10.98
2006-10-04 03:00,32.845,25.128,36.742,10.83
2006-10-04 04:00,32.839,25.181,36.439,10.50
2006-10-04 05:00,32.766,25.066,36.662,10.83
2006-10-04 06:00,32.731,25.008,36.789,11.01
2006-10-04 07:00,32.727,24.990,36.857,11.09
2006-10-04 08:00,32.737,25.025,36.732,10.94
2006-10-04 09:00,32.769,25.065,36.683,10.85
2006-10-04 10:00,32.790,25.096,36.633,10.77
2006-10-04 11:00,32.816,25.156,36.452,10.54
2006-10-04 12:00,32.873,25.214,36.437,10.46
2006-10-04 13:00,32.920,25.209,36.700,10.70
2006-10-04 14:00,32.957,25.229,36.782,10.75
2006-10-04 15:00,32.921,25.205,36.728,10.73
2006-10-04 16:00,32.907,25.212,36.624,10.63